De Soto, IL

7:44 PM CST on February 23, 2017 (GMT -0600)
Southern Illinois

Weather History for KMDH - May, 2013

Change the Weather History Date:

Tuesday, May 28, 2013

  Actual Average Record
Temperature  
Mean Temperature 77 °F -  
Max Temperature 87 °F 79 °F 101 °F (1911)
Min Temperature 70 °F 55 °F 42 °F (1961)
Cooling Degree Days 12    
Growing Degree Days 27 (Base 50)    
Moisture  
Dew Point 63 °F    
Average Humidity 61    
Maximum Humidity 76    
Minimum Humidity 47    
Precipitation  
Precipitation 0.00 in - - ()
Sea Level Pressure  
Sea Level Pressure 29.92 in    
Wind  
Wind Speed 13 mph (SSW)    
Max Wind Speed 24 mph    
Max Gust Speed 36 mph    
Visibility 10 miles    
Events      
Averages and records for this station are not official NWS values.
T = Trace of Precipitation, MM = Missing Value Source: NWS Daily Summary

Daily Weather History Graph

Daily Weather History Graph

Search for Another Location

Airport or City:

Trip Planner

Search our weather history database for the weather conditions in past years. The results will help you decide how hot, cold, wet, or windy it might be!

Date:

Astronomy

May. 28, 2013 Rise Set
Actual Time 5:38 AM CDT 8:10 PM CDT
Civil Twilight 5:07 AM CDT 8:41 PM CDT
Nautical Twilight 4:30 AM CDT 9:19 PM CDT
Astronomical Twilight 3:48 AM CDT 10:01 PM CDT
Moon 11:36 PM CDT (5/28) 9:24 AM CDT (5/28)
Length of Visible Light 15h 33m
Length of Day
14h 32m
Waning Gibbous, 82% of the Moon is Illuminated
May 28
Waning Gibbous
May 31
Last Quarter
Jun 8
New
Jun 16
First Quarter
Jun 23
Full

Hourly Weather History & Observations

Time (CDT) Temp. Heat Index Dew Point Humidity Pressure Visibility Wind Dir Wind Speed Gust Speed Precip Events Conditions
12:52 AM 71.1 °F - 60.1 °F 68% 29.93 in 10.0 mi South 8.1 mph - N/A   Clear
1:52 AM 73.0 °F - 60.1 °F 64% 29.92 in 10.0 mi SSW 11.5 mph - N/A   Partly Cloudy
2:52 AM 73.0 °F - 60.1 °F 64% 29.90 in 10.0 mi South 12.7 mph 20.7 mph N/A   Clear
3:52 AM 72.0 °F - 60.1 °F 66% 29.89 in 10.0 mi South 12.7 mph - N/A   Clear
4:52 AM 71.1 °F - 61.0 °F 70% 29.89 in 10.0 mi South 10.4 mph - N/A   Clear
5:52 AM 70.0 °F - 62.1 °F 76% 29.94 in 10.0 mi South 4.6 mph - N/A   Clear
6:52 AM 71.1 °F - 63.0 °F 75% 29.95 in 10.0 mi South 9.2 mph - N/A   Clear
7:52 AM 73.0 °F - 64.9 °F 76% 29.97 in 10.0 mi SW 10.4 mph 21.9 mph N/A   Mostly Cloudy
8:52 AM 75.9 °F - 66.9 °F 74% 29.94 in 10.0 mi South 18.4 mph 26.5 mph N/A   Mostly Cloudy
9:52 AM 80.1 °F 82.3 °F 66.9 °F 64% 29.93 in 10.0 mi South 20.7 mph 26.5 mph N/A   Mostly Cloudy
10:52 AM 80.1 °F 81.9 °F 64.9 °F 60% 29.93 in 10.0 mi SSW 20.7 mph 34.5 mph N/A   Mostly Cloudy
11:52 AM 82.0 °F 83.8 °F 64.9 °F 56% 29.96 in 10.0 mi SW 19.6 mph 29.9 mph N/A   Mostly Cloudy
12:52 PM 80.1 °F 82.1 °F 66.0 °F 62% 29.95 in 10.0 mi South 13.8 mph 19.6 mph N/A   Mostly Cloudy
1:52 PM 84.9 °F 87.1 °F 66.0 °F 53% 29.93 in 10.0 mi South 23.0 mph 28.8 mph N/A   Mostly Cloudy
2:52 PM 82.9 °F 84.0 °F 63.0 °F 51% 29.91 in 10.0 mi SSW 21.9 mph 31.1 mph N/A   Mostly Cloudy
3:52 PM 84.0 °F 84.9 °F 63.0 °F 49% 29.89 in 10.0 mi South 24.2 mph 32.2 mph N/A   Mostly Cloudy
4:52 PM 84.0 °F 84.5 °F 62.1 °F 47% 29.88 in 10.0 mi South 19.6 mph 35.7 mph N/A   Clear
5:52 PM 82.9 °F 83.7 °F 62.1 °F 49% 29.87 in 10.0 mi SSW 19.6 mph 26.5 mph N/A   Clear
6:52 PM 82.9 °F 84.4 °F 64.0 °F 53% 29.88 in 10.0 mi South 16.1 mph 21.9 mph N/A   Mostly Cloudy
7:52 PM 80.1 °F 81.7 °F 64.0 °F 58% 29.88 in 10.0 mi South 11.5 mph 19.6 mph N/A   Clear
8:52 PM 79.0 °F - 64.0 °F 60% 29.90 in 10.0 mi SSW 12.7 mph - N/A   Partly Cloudy
10:52 PM 75.9 °F - 60.1 °F 58% 29.94 in 10.0 mi SSW 10.4 mph - N/A   Mostly Cloudy
11:52 PM 73.9 °F - 59.0 °F 59% 29.94 in 10.0 mi South 6.9 mph - N/A   Clear